Find Starlink 11630

NORAD ID: 63111 Int'l Des: 2025-039 Owner: SPXS Country: US Constellation: starlink operational
別名: STARLINK-11630 [DTC] celestrak
LEOCIRCULAR

現在のビュー

3D地球を読み込み中...

About Starlink 11630

Starlink 11630 (NORAD 63111) is a starlink constellation satellite (v2 mini d2c) launched Feb 27, 2025 by SPXS of US. It operates in LEO, CIRCULAR orbit with a mass of 960.00 kg.

次回通過

Passes for default location (London). Set your location on the main map for personalized predictions.

高度履歴

Loading altitude history...

軌道要素

1 63111U 25039H 26263.96263751 .00178167 00000-0 13630-2 0 9994
2 63111 43.0002 140.0884 0001228 252.2723 107.8011 15.70830399 90321
Epoch: Sep 20, 2026 • Age: 10 hours

現在のステータス

高度 359.9 km
遠地点 / 近地点 N/A
速度 7.70 km/s
衛星直下点 42.58°N, 108.77°E
打ち上げ日 Feb 27, 2025
運用期間 1.5 years
タイプ internet

技術仕様

分類 Payload
質量 960.00 kg
乾燥質量 910.00 kg
長さ 0.30 m
スパン 29.00 m
形状 ? Box + pan
製造者 SPXS
バスタイプ Starlink V2MD
フェーズステータス In Orbit
所有者/国 SPXS/US

Most Searched